THY221 LTFM-UZTT

Flight info

Callsign THY221
Flight time N/A
Altitude 37000
Route EKAWE1D/35L EKAWE UT641 ABSAX UN743 GAKSU UT310 SIN UN644 ROLIN DCT ODILI DCT TETRO DCT AGISO DCT LAGAS M747 LUSAL N199 RASAM L88 METKA B476 NEBIT/N0480F390 B476 DARVA/K0889F390 T898 OGOLI N193 DIBAD DIBAD2U
Aircraft B77W/H-SDE1E2E3FGHIJ2J3J4J5M1RWXY/LB1D1

Departure

Time N/A
Airport İstanbul Airport (LTFM)

Arrival

Time 2026-04-27 15:32
Airport Tashkent International Airport (UZTT)
Time Latitude Longitude Altitude Speed Heading
2026-04-27 15:20 41.27529 68.37187 10328 ft 345 kts 91°
2026-04-27 15:21 41.27468 68.40278 10239 ft 329 kts 91°
2026-04-27 15:21 41.27409 68.43268 10189 ft 312 kts 91°
2026-04-27 15:21 41.27352 68.46056 10172 ft 295 kts 91°
2026-04-27 15:21 41.27298 68.48720 10158 ft 280 kts 91°
2026-04-27 15:22 41.27245 68.51228 10095 ft 268 kts 91°
2026-04-27 15:22 41.27193 68.53667 9956 ft 261 kts 91°
2026-04-27 15:22 41.27140 68.56142 9614 ft 273 kts 91°
2026-04-27 15:22 41.27087 68.58635 9260 ft 273 kts 91°
2026-04-27 15:23 41.27031 68.61169 8916 ft 273 kts 91°
2026-04-27 15:23 41.26975 68.63727 8586 ft 285 kts 91°
2026-04-27 15:23 41.26917 68.66393 8380 ft 290 kts 91°
2026-04-27 15:23 41.26856 68.69076 8378 ft 288 kts 91°
2026-04-27 15:24 41.26795 68.71733 8377 ft 286 kts 91°
2026-04-27 15:24 41.26734 68.74369 8376 ft 284 kts 91°
2026-04-27 15:24 41.26673 68.76980 8377 ft 283 kts 91°
2026-04-27 15:24 41.26613 68.79555 8374 ft 281 kts 91°
2026-04-27 15:25 41.26551 68.82146 8332 ft 274 kts 91°
2026-04-27 15:25 41.26491 68.84644 8294 ft 268 kts 91°
2026-04-27 15:25 41.26393 68.87093 8071 ft 264 kts 100°
2026-04-27 15:25 41.25842 68.89371 7817 ft 257 kts 112°
2026-04-27 15:26 41.25124 68.91482 7509 ft 249 kts 114°
2026-04-27 15:26 41.24404 68.93512 7174 ft 239 kts 114°
2026-04-27 15:26 41.23703 68.95486 6846 ft 228 kts 114°
2026-04-27 15:26 41.23055 68.97316 6521 ft 215 kts 114°
2026-04-27 15:27 41.22638 68.99161 6179 ft 201 kts 92°
2026-04-27 15:27 41.22716 69.00909 5856 ft 182 kts 83°
2026-04-27 15:27 41.22858 69.02483 5569 ft 164 kts 81°
2026-04-27 15:27 41.23000 69.03933 5291 ft 155 kts 82°
2026-04-27 15:28 41.23104 69.05333 5000 ft 151 kts 81°
2026-04-27 15:28 41.23253 69.06701 4709 ft 148 kts 79°
2026-04-27 15:28 41.23411 69.08044 4427 ft 147 kts 79°
2026-04-27 15:28 41.23566 69.09387 4142 ft 146 kts 79°
2026-04-27 15:29 41.23718 69.10720 3852 ft 146 kts 79°
2026-04-27 15:29 41.23866 69.12030 3565 ft 144 kts 79°
2026-04-27 15:29 41.24013 69.13344 3352 ft 144 kts 79°
2026-04-27 15:29 41.24160 69.14658 3149 ft 144 kts 79°
2026-04-27 15:30 41.24309 69.15986 2949 ft 145 kts 79°
2026-04-27 15:30 41.24449 69.17294 2750 ft 145 kts 78°
2026-04-27 15:30 41.24609 69.18622 2563 ft 146 kts 78°
2026-04-27 15:30 41.24747 69.19973 2344 ft 146 kts 78°
2026-04-27 15:31 41.24902 69.21296 2138 ft 146 kts 77°
2026-04-27 15:31 41.25045 69.22613 1948 ft 143 kts 78°
2026-04-27 15:31 41.25188 69.23928 1752 ft 142 kts 77°
2026-04-27 15:31 41.25330 69.25211 1571 ft 140 kts 78°
2026-04-27 15:32 41.25466 69.26473 1429 ft 132 kts 78°
2026-04-27 15:32 41.25589 69.27514 1428 ft 90 kts 81°
2026-04-27 15:32 41.25656 69.28136 1429 ft 47 kts 81°
2026-04-27 15:32 41.25688 69.28419 1429 ft 23 kts 82°
2026-04-27 15:33 41.25713 69.28643 1429 ft 23 kts 81°
2026-04-27 15:33 41.25735 69.28836 1429 ft 15 kts 68°
2026-04-27 15:33 41.25818 69.28909 1429 ft 13 kts 23°
2026-04-27 15:33 41.25903 69.28934 1429 ft 9 kts 340°
2026-04-27 15:34 41.25921 69.28863 1429 ft 8 kts 265°
2026-04-27 15:34 41.25917 69.28782 1429 ft 10 kts 265°
2026-04-27 15:34 41.25894 69.28556 1429 ft 37 kts 262°
2026-04-27 15:34 41.25848 69.28150 1429 ft 44 kts 259°
2026-04-27 15:35 41.25808 69.27805 1428 ft 29 kts 260°
2026-04-27 15:35 41.25792 69.27586 1428 ft 20 kts 282°
2026-04-27 15:35 41.25866 69.27470 1428 ft 14 kts 319°
2026-04-27 15:35 41.25941 69.27383 1428 ft 13 kts 318°
2026-04-27 15:36 41.26012 69.27301 1428 ft 13 kts 320°
2026-04-27 15:36 41.26077 69.27224 1428 ft 8 kts 317°
2026-04-27 15:36 41.26122 69.27193 1428 ft 6 kts
2026-04-27 15:36 41.26170 69.27219 1428 ft 7 kts 27°
2026-04-27 15:37 41.26197 69.27248 1428 ft 5 kts 53°
2026-04-27 15:37 41.26205 69.27283 1428 ft 3 kts 80°
2026-04-27 15:37 41.26207 69.27303 1429 ft 1 kts 80°
2026-04-27 15:37 41.26209 69.27316 1429 ft 0 kts 80°